GW2569 Weather Reports


Display with metric or nautical units.
time (UTC)temp
F
wind
direction
speed
MPH
gust
MPH
rain 1hr
in
rain 24hr
in
rain mn
in
humidity
%
barometer
mb
20260503013055 85 225 12.0 22.0 0.00 0.00 0.00 87 1011.8
20260503012541 85 290 10.0 18.0 0.00 0.00 0.00 87 1011.8
20260503012038 86 269 9.0 16.0 0.00 0.00 0.00 86 1011.8
20260503011603 86 318 7.0 18.0 0.00 0.00 0.00 86 1011.8
20260503011037 86 296 9.0 18.0 0.00 0.00 0.00 86 1011.8
20260503010539 86 332 9.0 18.0 0.00 0.00 0.00 86 1011.7
20260503010117 86 296 11.0 20.0 0.00 0.00 0.00 85 1011.5
20260503005539 86 329 10.0 22.0 0.00 0.00 0.00 85 1011.4
20260503005038 87 313 9.0 22.0 0.00 0.00 0.00 84 1011.3
20260503004546 87 315 12.0 22.0 0.00 0.00 0.00 83 1011.3
20260503004040 88 305 9.0 18.0 0.00 0.00 0.00 82 1011.1
20260503003539 88 287 10.0 18.0 0.00 0.00 0.00 81 1011.2
20260503003045 88 298 7.0 17.0 0.00 0.00 0.00 80 1011.0
20260503002539 88 266 9.0 17.0 0.00 0.00 0.00 79 1010.8
20260503002040 89 327 8.0 15.0 0.00 0.00 0.00 78 1010.9
20260503001548 89 323 7.0 17.0 0.00 0.00 0.00 78 1010.9
20260503001039 89 279 9.0 18.0 0.00 0.00 0.00 78 1010.8
20260503000539 89 289 11.0 18.0 0.00 0.00 0.00 77 1010.6
20260503000050 90 302 11.0 20.0 0.00 0.00 0.00 77 1010.7
20260502235539 90 300 8.0 20.0 0.00 0.00 0.00 76 1010.6
20260502235039 90 279 13.0 20.0 0.00 0.00 0.00 76 1010.4
20260502234548 90 298 12.0 23.0 0.00 0.00 0.00 76 1010.4
20260502234040 91 255 12.0 23.0 0.00 0.00 0.00 76 1010.3
20260502233540 91 331 15.0 23.0 0.00 0.00 0.00 76 1010.4
20260502233051 92 322 14.0 22.0 0.00 0.00 0.00 77 1010.3
20260502232540 92 335 13.0 21.0 0.00 0.00 0.00 76 1010.3
20260502232039 92 298 10.0 24.0 0.00 0.00 0.00 76 1010.2
20260502231550 93 296 15.0 24.0 0.00 0.00 0.00 75 1010.1
20260502231038 94 304 13.0 24.0 0.00 0.00 0.00 73 1010.1
20260502230540 95 317 11.0 24.0 0.00 0.00 0.00 70 1009.8
20260502230051 95 271 13.0 24.0 0.00 0.00 0.00 69 1009.7
20260502225538 96 293 11.0 20.0 0.00 0.00 0.00 67 1009.8
20260502225037 96 294 11.0 21.0 0.00 0.00 0.00 67 1009.8
20260502224553 96 315 11.0 21.0 0.00 0.00 0.00 66 1009.8
20260502224040 97 288 12.0 20.0 0.00 0.00 0.00 65 1009.7
20260502223540 97 275 9.0 19.0 0.00 0.00 0.00 65 1009.5
20260502223050 97 274 10.0 19.0 0.00 0.00 0.00 65 1009.5
20260502222542 97 325 10.0 19.0 0.00 0.00 0.00 65 1009.5
20260502222037 97 276 10.0 17.0 0.00 0.00 0.00 64 1009.6
20260502221550 97 294 6.0 16.0 0.00 0.00 0.00 64 1009.5
20260502221037 97 336 9.0 16.0 0.00 0.00 0.00 63 1009.4
20260502220542 97 315 10.0 16.0 0.00 0.00 0.00 63 1009.3
20260502220050 97 327 10.0 17.0 0.00 0.00 0.00 63 1009.4
20260502215540 97 268 7.0 17.0 0.00 0.00 0.00 66 1009.5
20260502215039 97 340 9.0 17.0 0.00 0.00 0.00 67 1009.5
20260502214559 96 277 11.0 18.0 0.00 0.00 0.00 67 1009.5
20260502214037 97 304 9.0 18.0 0.00 0.00 0.00 67 1009.5
20260502213544 96 311 12.0 18.0 0.00 0.00 0.00 67 1009.5
20260502213045 97 340 8.0 20.0 0.00 0.00 0.00 67 1009.5
20260502212540 96 306 9.0 20.0 0.00 0.00 0.00 67 1009.5
20260502212040 96 311 13.0 20.0 0.00 0.00 0.00 68 1009.6
20260502211601 97 300 11.0 19.0 0.00 0.00 0.00 67 1009.7
20260502211039 97 319 6.0 15.0 0.00 0.00 0.00 68 1009.6
20260502210539 97 279 10.0 19.0 0.00 0.00 0.00 68 1009.7
20260502210052 97 331 10.0 19.0 0.00 0.00 0.00 67 1009.7
20260502205538 97 5 9.0 17.0 0.00 0.00 0.00 68 1009.6
20260502205039 97 324 6.0 15.0 0.00 0.00 0.00 67 1009.8
20260502204547 97 328 6.0 15.0 0.00 0.00 0.00 67 1009.8
20260502204039 97 343 7.0 15.0 0.00 0.00 0.00 67 1009.8
20260502203539 97 338 6.0 17.0 0.00 0.00 0.00 67 1009.8
20260502203101 97 302 9.0 18.0 0.00 0.00 0.00 67 1010.0
20260502202537 97 352 4.0 18.0 0.00 0.00 0.00 66 1010.0
20260502202039 97 343 10.0 18.0 0.00 0.00 0.00 65 1010.1
20260502201550 97 52 6.0 16.0 0.00 0.00 0.00 67 1010.0
20260502201040 97 333 7.0 16.0 0.00 0.00 0.00 66 1010.2
20260502200540 97 325 8.0 17.0 0.00 0.00 0.00 67 1010.2
20260502200050 97 338 9.0 17.0 0.00 0.00 0.00 66 1010.3
20260502195539 98 336 10.0 17.0 0.00 0.00 0.00 64 1010.4
20260502195036 97 90 6.0 15.0 0.00 0.00 0.00 65 1010.4
20260502194552 98 284 9.0 15.0 0.00 0.00 0.00 64 1010.5
20260502194040 98 315 8.0 16.0 0.00 0.00 0.00 64 1010.5
20260502193539 97 344 7.0 16.0 0.00 0.00 0.00 63 1010.5
20260502193053 97 295 9.0 19.0 0.00 0.00 0.00 64 1010.6
20260502192538 97 5 9.0 19.0 0.00 0.00 0.00 64 1010.6
20260502192037 97 330 10.0 19.0 0.00 0.00 0.00 63 1010.7
20260502191545 97 304 8.0 16.0 0.00 0.00 0.00 64 1010.6
20260502191037 97 340 7.0 19.0 0.00 0.00 0.00 64 1010.7
20260502190537 97 340 10.0 19.0 0.00 0.00 0.00 64 1010.7
20260502190047 98 360 7.0 15.0 0.00 0.00 0.00 63 1010.7
20260502185540 97 331 7.0 15.0 0.00 0.00 0.00 64 1010.7
20260502185039 98 14 6.0 17.0 0.00 0.00 0.00 64 1010.7
20260502184547 97 351 10.0 17.0 0.00 0.00 0.00 64 1010.8
20260502184040 97 311 8.0 20.0 0.00 0.00 0.00 64 1011.0
20260502183539 97 309 6.0 20.0 0.00 0.00 0.00 64 1011.1
20260502183053 98 311 9.0 20.0 0.00 0.00 0.00 63 1011.2
20260502182538 98 276 8.0 17.0 0.00 0.00 0.00 63 1011.2
20260502182039 98 309 5.0 17.0 0.00 0.00 0.00 63 1011.1
20260502181550 98 330 10.0 17.0 0.00 0.00 0.00 59 1011.2
20260502181041 97 273 8.0 21.0 0.00 0.00 0.00 60 1011.2
20260502180539 97 313 11.0 21.0 0.00 0.00 0.00 60 1011.1
20260502164039 94 0 3.0 12.0 0.00 0.00 0.00 65 1011.9
20260502163538 94 340 6.0 12.0 0.00 0.00 0.00 65 1011.9
20260502163050 94 286 6.0 11.0 0.00 0.00 0.00 66 1011.9
20260502162539 94 314 5.0 11.0 0.00 0.00 0.00 67 1011.9
20260502162037 94 317 6.0 12.0 0.00 0.00 0.00 68 1011.9
20260502161553 93 313 5.0 12.0 0.00 0.00 0.00 68 1012.0
20260502161037 93 312 5.0 11.0 0.00 0.00 0.00 70 1012.0
20260502160542 93 320 7.0 11.0 0.00 0.00 0.00 69 1012.0
20260502152039 92 333 2.0 8.0 0.00 0.00 0.00 73 1011.7
20260502151557 91 348 2.0 9.0 0.00 0.00 0.00 73 1011.6
20260502151039 91 333 2.0 9.0 0.00 0.00 0.00 72 1011.6
20260502150539 91 79 2.0 9.0 0.00 0.00 0.00 71 1011.6
20260502130539 86 34 1.0 4.0 0.00 0.00 0.00 69 1010.0
20260502123539 85 323 1.0 6.0 0.00 0.00 0.00 71 1009.5
20260502123051 85 355 2.0 6.0 0.00 0.00 0.00 71 1009.4
20260502122539 85 360 2.0 4.0 0.00 0.00 0.00 70 1009.3
20260502122037 85 336 1.0 3.0 0.00 0.00 0.00 69 1009.2
20260502121552 85 0 0.0 1.0 0.00 0.00 0.00 69 1009.2
20260502121037 85 0 0.0 1.0 0.00 0.00 0.00 69 1009.1
20260502120539 85 0 0.0 3.0 0.00 0.00 0.00 69 1009.0
20260502120109 85 0 0.0 3.0 0.00 0.00 0.00 70 1008.9
20260502115539 86 321 1.0 3.0 0.00 0.00 0.00 69 1008.8
20260502115039 86 0 1.0 3.0 0.00 0.00 0.00 70 1008.7
20260502114629 86 340 1.0 6.0 0.00 0.00 0.00 70 1008.7
20260502114039 86 0 1.0 6.0 0.00 0.00 0.00 69 1008.6
20260502113541 86 338 2.0 6.0 0.00 0.00 0.00 69 1008.5
20260502113056 86 309 2.0 4.0 0.00 0.00 0.00 69 1008.4
20260502112541 86 312 1.0 4.0 0.00 0.00 0.00 69 1008.5
20260502112040 86 317 2.0 4.0 0.00 0.00 0.00 69 1008.3
20260502111550 86 0 0.0 2.0 0.00 0.00 0.00 69 1008.3
20260502111044 86 0 0.0 2.0 0.00 0.00 0.00 68 1008.4
20260502110543 86 265 0.0 0.0 0.00 0.00 0.00 68 1008.3
20260502110050 86 0 0.0 0.0 0.00 0.00 0.00 68 1008.2
20260502105545 86 0 0.0 1.0 0.00 0.00 0.00 68 1008.1
20260502105040 86 0 0.0 2.0 0.00 0.00 0.00 68 1008.1
20260502104554 86 0 0.0 3.0 0.00 0.00 0.00 68 1008.0
20260502104040 87 0 0.0 5.0 0.00 0.00 0.00 68 1007.9
20260502103541 87 252 2.0 5.0 0.00 0.00 0.00 68 1007.8
20260502103050 87 304 1.0 4.0 0.00 0.00 0.00 68 1007.7
20260502102541 87 0 1.0 3.0 0.00 0.00 0.00 68 1007.7
20260502102041 87 225 0.0 2.0 0.00 0.00 0.00 68 1007.6
20260502101613 87 0 0.0 4.0 0.00 0.00 0.00 68 1007.5
20260502101042 87 0 0.0 4.0 0.00 0.00 0.00 68 1007.3
20260502100541 87 0 0.0 4.0 0.00 0.00 0.00 68 1007.4
20260502100107 87 254 0.0 8.0 0.00 0.00 0.00 68 1007.2
20260502091041 86 0 0.0 4.0 0.00 0.00 0.00 70 1007.5
20260502090542 86 130 2.0 4.0 0.00 0.00 0.00 71 1007.4
20260502071040 89 223 3.0 13.0 0.00 0.00 0.00 66 1007.2
20260502070542 89 267 3.0 11.0 0.00 0.00 0.00 66 1007.2
20260502070059 89 275 2.0 11.0 0.00 0.00 0.00 66 1007.2
20260502065543 89 254 5.0 12.0 0.00 0.00 0.00 66 1007.3
20260502065042 90 244 6.0 12.0 0.00 0.00 0.00 66 1007.2
20260502064615 90 257 5.0 14.0 0.00 0.00 0.00 65 1007.2
20260502064041 90 246 7.0 14.0 0.00 0.00 0.00 65 1007.3
20260502063542 90 233 5.0 12.0 0.00 0.00 0.00 66 1007.3
20260502063054 90 226 6.0 12.0 0.00 0.00 0.00 66 1007.4
20260502062540 90 239 5.0 12.0 0.00 0.00 0.00 66 1007.3
20260502062040 90 254 6.0 14.0 0.00 0.00 0.00 65 1007.4
20260502061550 91 240 5.0 14.0 0.00 0.00 0.00 65 1007.4
20260502061040 91 298 5.0 12.0 0.00 0.00 0.00 66 1007.4
20260502060545 91 245 6.0 14.0 0.00 0.00 0.00 65 1007.5
20260502060050 91 259 8.0 14.0 0.00 0.00 0.00 65 1007.5
20260502055542 91 246 4.0 13.0 0.00 0.00 0.00 66 1007.5
20260502055042 91 232 6.0 12.0 0.00 0.00 0.00 66 1007.6
20260502054553 91 273 5.0 11.0 0.00 0.00 0.00 66 1007.5
20260502054040 91 259 6.0 13.0 0.00 0.00 0.00 66 1007.6
20260502053540 91 245 4.0 13.0 0.00 0.00 0.00 66 1007.6
20260502053057 91 250 3.0 12.0 0.00 0.00 0.00 67 1007.7
20260502052540 92 291 4.0 12.0 0.00 0.00 0.00 67 1007.6
20260502052040 92 258 6.0 11.0 0.00 0.00 0.00 67 1007.7
20260502051625 92 276 4.0 10.0 0.00 0.00 0.00 68 1007.7
20260502051044 92 221 5.0 10.0 0.00 0.00 0.00 68 1007.7
20260502050540 92 271 5.0 10.0 0.00 0.00 0.00 69 1007.7
20260502050051 92 291 5.0 10.0 0.00 0.00 0.00 70 1007.7
20260502045540 92 266 6.0 11.0 0.00 0.00 0.00 70 1007.7
20260502045040 92 291 5.0 11.0 0.00 0.00 0.00 71 1007.7
20260502044552 92 275 4.0 8.0 0.00 0.00 0.00 73 1007.8
20260502044040 92 275 3.0 8.0 0.00 0.00 0.00 74 1007.8
20260502043540 92 270 3.0 8.0 0.00 0.00 0.00 76 1007.8
20260502043113 92 261 2.0 8.0 0.00 0.00 0.00 76 1007.7
20260502042542 92 268 3.0 8.0 0.00 0.00 0.00 76 1007.7
20260502042042 92 264 2.0 4.0 0.00 0.00 0.00 76 1007.7
20260502041559 92 250 2.0 4.0 0.00 0.00 0.00 76 1007.7
20260502041041 92 298 2.0 6.0 0.00 0.00 0.00 76 1007.6
20260502040542 92 253 2.0 7.0 0.00 0.00 0.00 77 1007.6
20260502040056 92 300 2.0 8.0 0.00 0.00 0.00 77 1007.5
20260502035540 92 230 2.0 8.0 0.00 0.00 0.00 77 1007.5
20260502035040 92 257 4.0 8.0 0.00 0.00 0.00 77 1007.5
20260502034550 92 271 3.0 6.0 0.00 0.00 0.00 77 1007.5
20260502034041 92 261 2.0 5.0 0.00 0.00 0.00 77 1007.5
20260502033539 92 257 1.0 5.0 0.00 0.00 0.00 77 1007.4
20260502033052 92 256 1.0 5.0 0.00 0.00 0.00 77 1007.3
20260502032539 92 0 0.0 3.0 0.00 0.00 0.00 77 1007.2
20260502032043 92 0 0.0 3.0 0.00 0.00 0.00 77 1007.1
20260502031551 92 0 1.0 3.0 0.00 0.00 0.00 77 1007.0
20260502031041 92 0 1.0 3.0 0.00 0.00 0.00 76 1006.9
20260502030540 92 0 1.0 3.0 0.00 0.00 0.00 77 1006.9
20260502030057 92 0 1.0 3.0 0.00 0.00 0.00 78 1006.9
20260502025540 92 0 0.0 3.0 0.00 0.00 0.00 78 1006.7
20260502025040 92 132 1.0 3.0 0.00 0.00 0.00 77 1006.5
20260502024549 92 129 0.0 3.0 0.00 0.00 0.00 78 1006.5
20260502024044 92 0 1.0 3.0 0.00 0.00 0.00 77 1006.5
20260502023545 92 0 0.0 3.0 0.00 0.00 0.00 77 1006.4
20260502023056 92 183 0.0 4.0 0.00 0.00 0.00 77 1006.3
20260502022539 92 132 1.0 4.0 0.00 0.00 0.00 77 1006.3
20260502022041 92 141 0.0 4.0 0.00 0.00 0.00 77 1006.1
20260502021548 92 134 1.0 4.0 0.00 0.00 0.00 78 1006.1
20260502021041 92 109 1.0 4.0 0.00 0.00 0.00 78 1006.0
20260502020543 92 171 1.0 4.0 0.00 0.00 0.00 78 1005.9
20260502020051 92 149 1.0 6.0 0.00 0.00 0.00 78 1005.9
20260502015541 92 120 2.0 6.0 0.00 0.00 0.00 78 1005.8
20260502015041 92 106 1.0 5.0 0.00 0.00 0.00 78 1005.7
20260502014548 92 135 1.0 4.0 0.00 0.00 0.00 78 1005.6
20260502014040 92 131 0.0 3.0 0.00 0.00 0.00 78 1005.5
20260502013541 92 105 1.0 4.0 0.00 0.00 0.00 78 1005.4